CAPE
753 644 582 643 510 533 462 99 121 149 68 186 256 27 119 532 637 522 339 154 166 137 291 335 342 489 689 852 1027 1253 1487 1587 1668 1706 1811 1794 1902 2068
1091 907 615 592 666 409 315 308 68 152 177 14 134 165 80 403 266 199 357 437 275 348 474 233 96 145 248 383 449 513 593 691 800 849 882 868 812 921
1052 1161 1101 856 728 642 349 422 820 283 223 292 520 106 96 28 270 251 56 556 706 401 211 61 0 0 39 105 116 117 145 201 282 309 340 265 211 138
1034 1030 1020 962 874 907 648 529 487 513 305 271 580 750 711 492 289 105 429 596 875 702 34 8 0 0 0 1 0 0 13 41 70 55 4 2 0 0
1202 961 946 958 1002 1101 993 806 487 394 382 212 279 660 594 273 202 89 227 429 1141 951 555 25 0 0 0 0 0 0 0 0 0 0 0 0 0 0
1428 1263 1169 1066 1076 1018 952 757 474 300 230 171 140 120 358 311 460 519 558 229 574 1331 515 161 0 0 0 0 0 0 0 0 0 0 0 0 0 0
1503 1496 1402 1366 1361 1350 1270 1025 737 456 382 101 136 123 59 193 407 230 219 181 58 37 157 110 100 74 43 5 21 0 0 0 0 0 0 0 1 1
509 1180 1550 1662 1483 1065 936 1034 1028 954 635 258 191 73 58 13 58 137 128 61 95 1 3 14 0 0 18 42 125 47 0 0 0 0 0 0 1 0
290 514 1154 1497 1726 1299 1164 610 227 605 1002 714 331 299 72 0 50 112 58 0 15 2 0 0 0 0 0 200 338 74 0 0 0 0 0 1 1 1
261 293 346 613 1225 1615 1424 1499 1219 877 364 577 1041 747 208 66 157 232 124 22 0 2 0 164 155 323 331 356 498 346 14 0 0 0 0 1 0 0
474 520 539 710 917 1211 1042 1420 1481 1409 1019 411 530 709 391 149 289 337 414 312 341 339 112 374 542 311 241 294 111 12 4 0 0 0 0 0 0 0
517 530 593 427 185 0 1 398 1359 1516 1236 1035 56 8 0 9 13 469 487 485 282 317 282 729 521 457 668 94 96 0 0 0 0 0 0 0 0 0
520 630 235 173 14 1 1 1 65 256 721 1121 951 488 284 209 213 32 244 502 528 464 183 645 201 72 316 209 8 0 0 0 0 0 0 0 0 0
291 45 9 26 1 0 1 1 1 1 29 802 1195 1317 1111 694 427 250 122 222 596 682 289 231 368 169 76 51 142 0 0 0 0 0 0 0 0 1
0 0 1 0 0 0 0 0 1 0 47 312 1151 1503 1490 1190 952 634 435 230 189 381 378 136 410 230 191 358 123 38 0 0 0 0 0 0 0 0
0 0 0 0 1 1 1 64 122 123 108 134 499 1067 1453 1130 975 825 814 757 638 694 553 303 239 314 395 216 103 130 0 98 0 0 0 0 0 0
0 0 0 0 0 0 0 0 0 6 127 193 177 443 858 917 922 727 702 772 862 671 622 549 356 425 571 360 179 76 6 0 0 0 0 0 0 0
0 1 0 0 0 0 0 0 0 1 3 10 73 147 440 670 805 752 487 616 783 676 640 456 398 157 116 110 62 33 0 0 0 0 0 0 0 0
0 0 0 0 0 1 0 0 0 0 3 4 10 4 106 453 477 633 572 539 650 674 540 415 255 366 522 712 35 1 2 0 0 0 0 0 0 0
2 5 8 4 5 7 7 10 4 1 7 4 6 22 84 278 466 479 365 348 366 462 266 171 200 265 252 342 109 0 0 0 0 0 0 0 0 0
6 4 14 9 5 5 4 4 16 22 3 4 6 17 34 150 178 177 262 208 231 223 189 152 153 233 110 0 0 0 0 0 0 0 0 0 0 0
6 4 11 8 8 9 8 6 4 2 1 0 1 11 24 119 87 0 29 71 56 72 108 144 31 9 16 72 25 0 0 0 0 0 0 0 0 0
7 7 6 4 4 6 6 6 5 7 4 3 4 8 6 15 2 33 138 100 77 72 85 1 1 14 78 67 62 2 0 0 0 0 0 0 0 0
CIN
-93 -111 -130 -121 -149 -141 -117 -164 -115 -71 -137 -148 -185 -497 -423 -301 -305 -298 -330 -307 -318 -328 -288 -256 -223 -197 -177 -146 -107 -79 -53 -31 -19 -18 -11 -10 -5 -2
-82 -94 -126 -143 -131 -159 -156 -138 -193 -122 -69 -224 -193 -322 -439 -281 -329 -352 -314 -261 -296 -246 -246 -290 -275 -269 -241 -210 -191 -184 -146 -112 -95 -86 -81 -91 -89 -62
-83 -71 -72 -88 -103 -110 -165 -163 -79 -129 -93 -82 -117 -289 -333 -390 -259 -259 -354 -213 -200 -256 -312 -341 0 0 -321 -276 -275 -291 -268 -240 -197 -195 -199 -222 -229 -235
-87 -70 -71 -86 -83 -78 -113 -138 -138 -124 -107 -85 -53 -89 -138 -202 -231 -249 -174 -126 -190 -197 -340 -377 0 0 0 -20 0 0 -361 -354 -336 -330 -18 -20 0 0
-87 -98 -88 -80 -67 -59 -82 -99 -128 -139 -139 -130 -96 -87 -109 -168 -164 -221 -185 -176 -156 -171 -191 -263 0 0 0 0 0 0 0 0 0 0 0 0 0 0
-61 -85 -83 -72 -56 -67 -66 -97 -141 -144 -159 -168 -163 -165 -105 -103 -101 -66 -80 -199 -146 -117 -192 -249 0 0 0 0 0 0 0 0 0 0 0 0 0 0
-41 -50 -62 -62 -54 -45 -33 -59 -86 -119 -113 -181 -154 -153 -148 -89 -56 -99 -90 -129 -174 -189 -259 -261 -303 -346 -391 -311 -316 0 0 0 0 0 0 0 0 0
-156 -74 -46 -38 -46 -97 -107 -59 -68 -52 -71 -114 -135 -196 -168 -174 -108 -111 -94 -155 -140 -2 -359 -292 0 0 -331 -360 -310 -403 0 0 0 0 0 0 0 0
-159 -133 -60 -29 -16 -55 -75 -170 -254 -140 -59 -74 -131 -128 -165 0 -133 -111 -226 -1 -227 -135 0 0 0 0 0 -309 -256 -395 0 0 0 0 0 0 0 0
-144 -146 -145 -115 -45 -13 -30 -40 -77 -133 -228 -139 -48 -95 -189 -194 -137 -112 -148 -265 0 -96 0 -148 -224 -144 -162 -219 -241 -296 -525 0 0 0 0 0 0 0
-75 -69 -67 -55 -49 -14 -31 -9 -11 -78 -109 -251 -219 -145 -180 -226 -135 -98 -75 -86 -94 -110 -224 -120 -134 -162 -183 -191 -333 -205 -81 0 0 0 0 0 0 0
-75 -81 -58 -75 -166 0 0 -113 -20 -48 -39 -93 -400 -31 0 -364 -289 -107 -80 -59 -105 -130 -204 -64 -116 -127 -61 -311 -324 0 0 0 0 0 0 0 0 0
-74 -61 -115 -145 -327 0 0 0 -171 -250 -89 -44 -92 -206 -250 -277 -245 -182 -156 -63 -61 -115 -221 -100 -154 -210 -134 -178 -124 0 0 0 0 0 0 0 0 0
-86 -195 -293 -250 0 0 0 0 0 0 -182 -43 -9 -19 -72 -159 -220 -210 -252 -175 -79 -74 -110 -149 -71 -130 -190 -216 -146 0 0 0 0 0 0 0 0 0
0 0 0 0 0 0 0 0 0 0 -242 -88 -3 -1 -3 -40 -73 -121 -164 -217 -210 -144 -127 -192 -81 -148 -134 -95 -163 -217 0 0 0 0 0 0 0 0
0 0 0 0 0 0 0 -179 -134 -140 -134 -127 -29 -5 -10 -24 -34 -77 -75 -75 -47 -67 -99 -155 -158 -100 -72 -126 -161 -169 0 -142 0 0 0 0 0 0
0 0 0 0 0 0 0 0 0 -72 -108 -64 -61 -15 0 -1 -15 -73 -90 -56 -30 -53 -71 -97 -140 -106 -70 -109 -133 -217 -115 0 0 0 0 0 0 0
0 0 0 0 0 0 0 0 0 -1 -24 -35 -90 -48 -1 0 -1 -17 -75 -54 -43 -55 -60 -118 -121 -126 -126 -70 -96 -252 0 0 0 0 0 0 0 0
0 0 0 -1 0 0 0 0 0 -2 -1 0 0 -3 -39 0 -1 0 -26 -55 -38 -27 -60 -78 -105 -57 -11 -1 -264 -8 -219 0 0 0 0 0 0 0
-3 -1 -1 0 0 0 0 0 -1 0 -2 -2 0 -29 -17 -1 0 -1 -24 -49 -36 -42 -80 -87 -70 -60 -59 -65 -154 0 0 0 0 0 0 0 0 0
0 0 0 0 0 0 0 0 0 0 0 -1 -1 -24 -38 -1 -1 -16 -10 -45 -46 -81 -35 -54 -94 -62 -137 -81 0 0 0 0 0 0 0 0 0 0
0 0 0 0 0 0 0 0 0 0 0 0 0 0 -4 -5 -2 0 -63 -67 -122 -71 -44 -73 -109 -72 -34 -32 -95 0 0 0 0 0 0 0 0 0
0 0 0 0 0 0 0 0 0 0 0 0 0 0 0 0 0 -26 -7 -10 -14 -17 -22 0 -30 -26 -14 -33 -32 -35 0 0 0 0 0 0 0 0
Wind_Speed
6 6 5 5 4 4 4 4 5 3 4 4 4 6 6 4 7 5 10 10 8 11 13 14 14 14 13 13 13 12 11 10 10 10 10 10 14 16
5 6 5 4 6 4 4 4 4 5 3 4 4 5 8 6 5 6 8 9 13 14 15 15 15 14 13 13 13 13 12 12 11 11 11 12 12 12
6 7 7 6 5 5 4 4 4 5 4 2 4 3 5 4 5 7 8 8 7 15 15 14 14 14 14 14 13 12 11 12 12 13 12 12 11 11
9 7 9 5 8 8 5 7 5 5 4 5 3 3 6 5 7 5 8 8 6 9 13 14 15 16 13 13 14 12 13 12 13 12 12 12 10 8
9 9 9 7 8 6 7 7 6 4 4 4 5 3 3 3 4 5 5 8 4 10 13 17 15 14 13 11 11 12 11 12 13 12 10 10 10 9
9 8 8 9 10 9 8 8 6 4 4 4 4 5 5 5 3 3 4 4 4 3 4 7 9 12 13 13 13 13 13 11 10 11 11 10 9 9
7 8 9 11 13 12 7 8 7 7 5 6 6 5 6 3 5 2 4 4 3 3 2 3 3 4 5 9 11 15 13 13 13 13 12 12 10 9
6 7 8 11 12 16 17 16 12 9 9 6 7 8 8 5 4 8 6 3 4 3 4 6 4 4 5 6 11 14 16 17 16 15 13 12 10 10
6 6 7 7 9 9 12 15 14 17 18 10 11 10 6 7 6 5 5 5 4 2 4 4 4 5 6 7 13 16 17 16 18 16 15 14 13 12
7 7 8 8 7 8 7 10 11 11 13 12 15 13 9 7 8 7 7 5 2 2 4 4 4 5 3 5 12 13 12 15 17 16 16 15 13 12
7 6 6 7 8 11 9 11 12 13 9 17 18 17 13 15 12 4 5 3 4 4 6 4 3 3 4 5 5 11 12 15 16 16 16 14 12 7
5 6 7 6 7 7 5 8 12 11 6 6 6 11 12 12 13 11 6 9 5 3 5 5 3 3 4 3 2 3 3 9 13 14 14 13 9 4
4 4 4 8 5 7 6 6 10 8 10 8 8 7 7 9 9 10 12 10 10 9 5 5 4 3 3 3 2 2 4 3 5 5 9 11 12 10
4 3 4 7 9 11 9 12 13 10 6 7 8 9 9 8 7 9 11 12 12 15 7 8 6 5 4 3 3 2 3 4 4 4 5 6 11 12
3 4 8 10 13 9 11 10 10 5 6 7 8 10 9 8 7 6 8 12 12 12 8 9 9 6 6 6 4 4 4 4 4 4 4 5 6 5
3 5 7 9 10 9 7 5 4 4 6 8 9 9 6 6 9 8 8 8 8 8 11 11 13 9 7 7 5 4 4 3 2 4 4 3 4 4
6 4 3 2 3 4 4 4 4 5 6 6 7 9 9 8 10 8 9 7 9 8 7 6 10 12 10 8 4 5 4 3 4 3 3 3 3 5
3 3 4 4 4 5 6 6 5 6 5 7 8 8 10 10 11 9 9 9 10 9 7 5 6 3 2 4 5 4 3 4 4 5 2 4 3 4
2 4 4 6 6 7 7 7 9 7 8 7 8 10 10 10 11 11 10 8 8 7 7 6 7 7 8 10 2 10 7 5 4 4 4 4 4 4
3 3 4 4 6 6 6 8 8 8 9 11 10 9 10 10 10 10 10 9 8 7 6 5 7 8 10 12 7 4 14 5 5 5 4 2 2 2
8 8 7 6 7 8 8 9 10 6 8 11 11 10 8 8 10 8 8 11 10 8 10 9 9 8 3 4 1 3 4 12 9 8 5 4 3 2
8 9 7 7 8 8 8 9 9 8 7 8 10 15 5 9 11 11 11 11 10 10 10 7 7 6 5 9 9 6 4 2 8 1 7 13 8 5
8 8 8 6 7 8 8 8 9 8 9 11 10 11 12 10 7 4 5 10 9 10 8 6 6 7 9 8 7 4 6 6 5 7 5 11 9 5
Wind_Direction
235 237 234 250 232 206 189 172 172 219 276 273 245 225 242 225 246 239 247 249 236 249 236 231 231 230 229 231 236 240 245 244 241 237 235 233 239 240
224 218 227 245 256 231 210 182 184 185 214 209 251 234 224 216 213 225 250 264 245 236 229 225 226 228 229 229 232 232 234 239 236 232 233 235 237 240
228 224 223 212 238 256 242 199 199 171 185 318 271 241 209 229 214 242 250 250 231 221 225 228 231 230 229 228 228 228 226 226 226 230 230 233 238 246
238 223 233 218 219 233 239 245 223 197 154 216 234 255 232 222 242 233 225 227 227 244 228 231 233 230 225 228 225 215 216 216 219 220 223 225 232 245
234 227 233 213 233 228 228 233 242 221 184 186 229 246 256 254 242 250 242 243 212 225 229 234 239 231 218 226 227 215 212 208 213 213 212 222 227 237
244 239 234 217 223 226 223 221 222 213 194 193 205 210 221 235 234 222 264 239 236 233 218 233 207 208 205 213 223 217 209 208 206 206 216 215 222 236
255 248 246 238 228 228 223 228 210 218 209 222 231 229 216 197 199 187 256 253 263 215 247 243 220 207 213 222 237 219 205 198 205 210 218 218 216 230
259 250 246 252 247 238 233 225 205 214 220 210 232 227 232 216 203 203 205 199 257 206 190 263 198 227 239 217 215 217 206 201 199 206 211 217 209 228
250 255 261 258 237 243 240 242 238 225 225 210 231 228 219 207 193 199 190 197 212 212 160 259 182 233 229 229 216 215 208 198 199 200 203 209 213 222
251 251 256 265 251 248 246 251 246 232 229 231 236 239 224 201 203 215 204 205 247 234 171 223 190 229 236 234 222 224 224 199 200 194 201 206 209 216
260 255 251 267 270 253 255 255 256 250 234 223 226 229 222 191 200 171 210 178 236 229 192 199 213 230 212 247 230 216 215 204 196 196 200 208 206 210
266 259 259 273 318 335 303 282 266 267 230 238 236 249 229 223 203 198 204 218 207 235 204 184 199 170 289 247 225 196 190 199 195 203 202 198 181 192
249 270 289 299 324 310 302 281 272 302 292 237 232 227 227 223 218 215 218 219 227 236 194 163 194 188 211 266 288 221 186 184 192 199 198 201 185 190
256 273 274 284 302 301 300 276 282 285 272 264 237 238 233 226 213 210 207 219 229 236 200 184 216 184 186 208 217 199 225 213 174 197 195 201 195 199
248 274 300 291 287 283 266 271 285 288 277 263 256 247 238 228 223 211 217 215 226 234 231 199 218 208 206 230 214 213 173 218 193 191 171 184 196 178
287 299 268 260 268 260 283 274 281 259 264 273 266 265 255 206 216 210 206 202 215 228 223 206 213 204 218 216 186 202 200 208 176 185 183 178 170 179
321 283 299 323 327 300 289 277 280 288 284 270 269 268 258 240 222 216 214 195 215 224 218 203 210 213 214 200 193 202 183 201 216 183 134 170 203 196
308 313 311 316 306 300 303 308 296 289 283 290 286 275 267 248 237 218 215 210 214 219 213 191 178 174 180 238 182 167 187 204 186 182 165 163 232 223
292 328 324 329 318 318 311 298 296 292 284 274 278 276 269 261 235 221 215 207 207 215 215 189 192 182 202 230 230 231 187 181 160 183 180 178 197 227
321 331 325 344 335 327 312 296 296 299 299 290 278 265 262 255 239 221 208 200 213 199 195 192 206 200 196 216 206 234 216 146 174 185 184 148 242 276
356 346 340 358 351 346 340 328 324 324 330 338 300 257 254 261 238 233 220 215 191 189 203 205 214 203 126 96 227 236 239 217 181 173 156 164 175 179
352 347 0 2 2 351 350 341 328 320 323 340 336 319 267 265 231 226 221 214 210 215 222 200 150 174 174 205 210 203 221 183 217 335 172 163 162 198
351 345 341 12 4 359 354 339 329 323 336 350 336 316 328 319 290 213 216 216 206 201 185 167 163 178 194 205 212 218 214 182 162 205 240 203 238 212